Regional Weather Roundup
Issued by NWS

Current Version | Previous Version | Graphics & Text | Print | Product List | Glossary On
Versions: 1 2 3 4 5 6 7 8 9 10 11 12 13 14 15 16 17 18 19 20 21 22 23 24 25 26 27 28 29 30 31 32 33 34 35 36 37 38 39 40 41 42 43 44 45 46 47 48 49 50
000
ASHW40 PHFO 282112
RWRHI

WEATHER ROUNDUP FOR HAWAII
NATIONAL WEATHER SERVICE HONOLULU HI
1100 AM HST THU JUL 28 2016

THIS IS AN AUTOMATED REPORT THAT HAS NOT BEEN QUALITY CONTROLLED.

NOTE..."FAIR" INDICATES FEW OR NO CLOUDS BELOW 12,000 FEET WITH NO
SIGNIFICANT WEATHER AND/OR OBSTRUCTIONS TO VISIBILITY.

* - THESE SITES REPORT LIMITED FIELDS

HIZ001>004-282200-
KAUAI-NIIHAU-

CITY           SKY/WX    TMP DP  RH WIND       PRES   REMARKS
LIHUE APT      PTSUNNY   84  70  62 NE18      30.09R
PORT ALLEN*      N/A     86 N/A N/A E22G28      N/A
POIPU*           N/A     86 N/A N/A NE12G25     N/A
PRINCEVILLE*     N/A     82 N/A N/A E10G21      N/A
KOKOLE POINT*  NOT AVBL
MOLOAA DAIRY*    N/A     84  70  61 E6G16       N/A
WAIMEA HTS*    NOT AVBL
PUU OPAE*      NOT AVBL
PUU LUA*       NOT AVBL
MAKAHA RIDGE*  NOT AVBL
$$

HIZ005>011-282200-
OAHU-

CITY           SKY/WX    TMP DP  RH WIND       PRES   REMARKS
HONOLULU       FAIR      86  64  47 E20G26    30.03S
KALAELOA       FAIR      88  65  46 NE14G23   30.03F HX  90
KANEOHE MCB    FAIR      84  70  62 NE13G18   30.03S
WHEELER FIELD  NOT AVBL
BELLOWS*       NOT AVBL
KAHUKU*        NOT AVBL
WHEELER*       NOT AVBL
WAIANAE HARBOR NOT AVBL
DILLINGHAM*      N/A     86  64  48 MISG        N/A
KAHUKU TRN*      N/A     82  70  65 W15G31      N/A
KAWAILOA*        N/A     79  66  65 E14G25      N/A
KII*             N/A     82  72  69 E21G26      N/A
MAKUA RANGE*     N/A     73  54  49 NW9G18      N/A
OAHU FOREST NW NOT AVBL
SCHOFIELD BRK*   N/A     72  55  56 MISG        N/A
SCHOFIELD S*   NOT AVBL
WAIANAE VLY*   NOT AVBL
KUAOKALA*      NOT AVBL
HONOULIUULI*   NOT AVBL
MOKUOLOE IS*   NOT AVBL
PALEHUA*       NOT AVBL
WAIAWA PHB*    NOT AVBL
$$

HIZ012>013-282200-
MOLOKAI-

CITY           SKY/WX    TMP DP  RH WIND       PRES   REMARKS
MOLOKAI AIRPT  FAIR      85  67  54 NE20G33   30.03F
KALAUPAPA      NOT AVBL
MAKAPULAPAI*   NOT AVBL
MOLOKAI 1*     NOT AVBL
PUU ALII*      NOT AVBL
$$

HIZ016-282200-
KAHOOLAWE-

CITY           SKY/WX    TMP DP  RH WIND       PRES   REMARKS
KAHOOLAWE*     NOT AVBL
HAKIOAWA*      NOT AVBL
HONOKANAIA*      N/A     86  66  50 N12G29    29.94S
KANELOA*         N/A     81  66  61 E22G38    30.07S
KEALIALALO*    NOT AVBL
LUA MAKIKA*    NOT AVBL
$$

HIZ014>015-282200-
LANAI-

CITY           SKY/WX    TMP DP  RH WIND       PRES   REMARKS
LANAI CITY     PTSUNNY   79  66  64 SW6       30.07R
LANAI 1*       NOT AVBL
$$

HIZ017>028-282200-
MAUI-

CITY           SKY/WX    TMP DP  RH WIND       PRES   REMARKS
KAHULUI        FAIR      87  68  52 NE29G37   30.01F HX  90
KAPALUA-W MAUI MOSUNNY   82  64  54 NE14G21   30.03
HANA AIRPORT     N/A     82  68  61 NE13      30.09S
HANA*            N/A     82 N/A N/A E12G17      N/A
HALEAKALA SUMM   N/A     54  25  32 NE20G51     N/A
MAALAEA BAY*   NOT AVBL
HALEAKALA*     NOT AVBL
KAUPO GAP*     NOT AVBL
KULA 1*          N/A     73  51  46 W3G9        N/A
$$

HIZ023>026-282200-
BIG ISLAND OF HAWAII COAST AND LOWER SLOPES-

CITY           SKY/WX    TMP DP  RH WIND       PRES   REMARKS
KAILUA KONA    FAIR      85  70  60 S12       29.96S
HILO           FAIR      85  68  56 VRB3      30.05S
HONOKAA*         N/A     79 N/A N/A VRB1        N/A
KAWAIHAE MWT*    N/A     86 N/A N/A W9          N/A
KAWAIHAE*      NOT AVBL
SOUTH POINT*     N/A     81 N/A N/A NE24G33     N/A
UPOLU AIRPORT*   N/A    N/A N/A N/A NE25G35     N/A
KAMUELA*       NOT AVBL
HAKALAU*         N/A     69  40  35 E5G10       N/A
KALOKO-HONOKO* NOT AVBL
PALI 2*          N/A     81  57  44 S21G32      N/A
KEALAKOMO*       N/A     88  63  42 NE26G39     N/A
KAUPULEHU*     NOT AVBL
KAPAPALA*        N/A     86  64  46 W7G15       N/A
LOWER KAHUKU*  NOT AVBL
PUHE CS*       NOT AVBL
PUHO CS*       NOT AVBL
PTA KEAMUKU*     N/A     75  61  60 CALM        N/A
WAIKOLOA*      NOT AVBL
$$

HIZ027>028-282200-
BIG ISLAND OF HAWAII INTERIOR AND SUMMMITS-

CITY           SKY/WX    TMP DP  RH WIND       PRES   REMARKS
BRADSHAW FIELD NOT AVBL
MK VISITOR CEN   N/A     59  23  25 E12         N/A
MAUNA KEA*       N/A     41  14  33 S18         N/A
MAUNA LOA*       N/A    N/A N/A N/A MISG        N/A
MAUNA LOA 1*   NOT AVBL
PTA KIPUKA*      N/A     82  34  17 E9G30       N/A
PTA RANGE 17*    N/A    N/A N/A N/A SE20G32     N/A
PTA WEST*        N/A     75  57  53 NW8G15      N/A
NENE CABIN*    NOT AVBL
AHUMOA*        NOT AVBL
PTA PORTABLE*  NOT AVBL
PUU MALI*        N/A    N/A N/A N/A E21G35      N/A
$$

HIC003-282200-
NORTHWEST ISLANDS-

CITY           SKY/WX    TMP DP  RH WIND       PRES   REMARKS
MIDWAY ISLAND  MOSUNNY   81  72  74 E14       30.11F
MIDWAY NOS*    NOT AVBL
FRENCH FRIGATE NOT AVBL
$$

PHZ110>124-180-282200-
BUOY REPORTS

STATION/POSITION TIME  TEMP    WIND        PRES    WAVE   SWELL
                       AIR SEA DIR/SP/G            HT/PER HT/DIR
                 (UTC) (F)     (DEG/KT/KT) (MB)    (FT/S) (FT/D)
BUOY 51001       2000   81 82  100/ 14/ 17 1016.5R
BUOY 51101       2050   79 79   70/ 14/ 16 1019.6S   5/ 7   3/ 90
BUOY 51100       NOT AVBL
BUOY 51002       2050   82 82   80/ 12/ 14 1014.8R   7/ 8   5
BUOY 51003       2050   80 82   80/ 16/ 19 1015.3S   9/ 8   7/ 80
BUOY 51004       2050   80 81   60/ 19/ 23 1014.5F   7/ 6   3/150
BARBERS PT BUOY  NOT AVBL
WAIMEA BAY BUOY  2004      80                N/A     5/ 7
KAILUA BAY BUOY  2011      80                N/A     7/ 8   2/130
LANAI BUOY       2015      81                N/A     3/15   2/200
BARBERS PT 2     NOT AVBL
PAUWELA MAUI     2009      80                N/A     7/ 7
HILO             2012      80                N/A     7/ 9   2/100
KANEOHE BAY BUOY 2006      79                N/A     6/ 8
HANALEI KAUAI    NOT AVBL
KAHULUI HARBOR   2000   80 80   40/ 19/ 25 1016.6F
HONOLULU HARBOR  2000   82 80   50/ 10/ 15 1017.4F
KILO NALU        NOT AVBL
HILO HARBOR      2000   79 78  360/  7/  9 1017.3R
MOKUOLOE         2000   82 83   70/ 13/ 17 1017.9R
NAWILIWILI       2000      81                N/A
WHOTS BUOY       NOT AVBL
BUOY 51028       NOT AVBL
$$

......................KEY........................................
  SKY/WX - SKY CONDITIONS/PRESENT WEATHER
  TMP    - TEMPERATURE IN FAHRENHEIT
  DWPT   - DEWPOINT IN FAHRENHEIT
  RH     - RELATIVE HUMIDITY IN PERCENT
  WIND   - DIRECTION AND SPEED /MPH FOR ISLANDS...KTS FOR BUOYS/
  PRES   - MEAN SEA LEVEL PRESSURE IN INCHES OF HG
  VSB    - VISIBILITY IN MILES
  HX     - HEAT INDEX
  WCI    - WIND CHILL INDEX
  VRB    - VARIABLE WIND DIRECTION
  N/A    - NOT AVAILABLE




USA.gov is the U.S. government's official web portal to all federal, state and local government web resources and services.